Seward, AK

2:12 PM AKDT on April 21, 2018 (GMT -0800)
Seward

Weather History for PAWD - November, 2012

Change the Weather History Date:

Thursday, November 8, 2012

  Actual Average Record
Temperature  
Mean Temperature 25 °F -  
Max Temperature 34 °F 37 °F 48 °F (2003)
Min Temperature 16 °F 28 °F 5 °F (1990)
Degree Days  
Heating Degree Days 40    
Moisture  
Dew Point 23 °F    
Average Humidity 81    
Maximum Humidity 89    
Minimum Humidity 74    
Precipitation  
Precipitation 0.00 in - - ()
Sea Level Pressure  
Sea Level Pressure 30.30 in    
Wind  
Wind Speed 4 mph (NNW)    
Max Wind Speed 10 mph    
Max Gust Speed -    
Visibility 9 miles    
Events Snow    
Averages and records for this station are not official NWS values.
T = Trace of Precipitation, MM = Missing Value Source: NWS Daily Summary

Daily Weather History Graph

Daily Weather History Graph

Search for Another Location

Airport or City:

Astronomy

Nov. 08, 2012 Rise Set
Actual Time 8:40 AM AKST 4:41 PM AKST
Civil Twilight 7:53 AM AKST 5:29 PM AKST
Nautical Twilight 7:02 AM AKST 6:19 PM AKST
Astronomical Twilight 6:13 AM AKST 7:08 PM AKST
Moon 1:20 AM AKST (11/8) 2:43 PM AKST (11/8)
Length of Visible Light 9h 36m
Length of Day
8h 01m
Waning Crescent, 31% of the Moon is Illuminated
Nov 8
Waning Crescent
Nov 13
New
Nov 20
First Quarter
Nov 28
Full
Dec 6
Last Quarter

Hourly Weather History & Observations

Time (AKST) Temp. Windchill Dew Point Humidity Pressure Visibility Wind Dir Wind Speed Gust Speed Precip Events Conditions
12:53 AM 16.0 °F 3.6 °F 9.0 °F 74% 30.38 in 10.0 mi NNW 10.4 mph - N/A   Mostly Cloudy
1:53 AM 16.0 °F 5.3 °F 9.0 °F 74% 30.37 in 10.0 mi NNW 8.1 mph - N/A   Scattered Clouds
3:53 AM 17.1 °F 7.6 °F 10.9 °F 77% 30.36 in 10.0 mi NNW 6.9 mph - N/A   Clear
4:53 AM 19.0 °F 12.3 °F 12.0 °F 74% 30.35 in 10.0 mi North 4.6 mph - N/A   Clear
5:53 AM 19.9 °F - 14.0 °F 78% 30.34 in 10.0 mi Calm Calm - N/A   Mostly Cloudy
6:53 AM 21.9 °F 17.2 °F 15.1 °F 75% 30.34 in 10.0 mi NNW 3.5 mph - N/A   Overcast
7:53 AM 25.0 °F - 18.0 °F 75% 30.34 in 10.0 mi Calm Calm - N/A   Overcast
8:53 AM 27.0 °F - 19.9 °F 75% 30.33 in 10.0 mi Calm Calm - N/A   Overcast
9:53 AM 28.0 °F 24.2 °F 21.9 °F 78% 30.33 in 10.0 mi NW 3.5 mph - 0.00 in   Overcast
10:53 AM 30.0 °F - 24.1 °F 79% 30.33 in 5.0 mi Calm Calm - 0.00 in Snow Light Snow
11:18 AM 30.2 °F - 24.8 °F 80% 30.33 in 2.0 mi Calm Calm - 0.00 in Snow Light Snow
11:30 AM 30.2 °F - 24.8 °F 80% 30.33 in 3.0 mi Calm Calm - 0.00 in Snow Light Snow
11:53 AM 32.0 °F - 26.1 °F 79% 30.33 in 3.0 mi Calm Calm - 0.00 in Snow Light Snow
12:53 PM 32.0 °F 28.7 °F 28.0 °F 85% 30.32 in 10.0 mi North 3.5 mph - 0.00 in   Overcast
1:53 PM 33.1 °F - 28.9 °F 85% 30.30 in 10.0 mi Calm Calm - N/A   Overcast
2:53 PM 34.0 °F - 28.9 °F 82% 30.30 in 10.0 mi Calm Calm - N/A   Overcast
3:53 PM 34.0 °F - 28.9 °F 82% 30.28 in 10.0 mi Calm Calm - N/A   Overcast
4:53 PM 33.1 °F - 28.9 °F 85% 30.27 in 10.0 mi Calm Calm - N/A   Overcast
5:53 PM 32.0 °F - 28.0 °F 85% 30.26 in 10.0 mi Calm Calm - N/A   Overcast
6:53 PM 32.0 °F - 28.9 °F 88% 30.25 in 10.0 mi Calm Calm - N/A   Overcast
7:53 PM 32.0 °F 28.7 °F 28.0 °F 85% 30.23 in 10.0 mi NNW 3.5 mph - N/A   Overcast
8:53 PM 32.0 °F - 28.0 °F 85% 30.23 in 10.0 mi Calm Calm - N/A   Overcast
9:53 PM 30.9 °F - 28.0 °F 89% 30.22 in 10.0 mi Calm Calm - N/A   Overcast
10:53 PM 32.0 °F - 28.0 °F 85% 30.20 in 10.0 mi Calm Calm - N/A   Overcast
11:53 PM 32.0 °F - 28.0 °F 85% 30.19 in 10.0 mi Calm Calm - N/A   Overcast